[[{"header":{"parameterUnit":"m.s-1","parameterCategory":1,"la1":30.2991,"la2":30.254,"lo1":-89.0895,"lo2":-89.0444,"dy":0.0017,"dx":0.0017,"nx":28,"ny":28,"refTime":"2024-05-16T09:00:00:Z","depth":0,"parameterNumber":2,"parameterNumberName":"U-component_of_WINDS"},"data":[0,0,0,0,0,0,0,0,0,0,0,0,0,0,0,0,0,0,0,0,0,0,0,0,0,0,0,0,0,0,0,0,0,0,0,0,0,0,0,0,0,0,0,0,0,0,0,0,0,0,0,0,0,0,0,0,0,0,1.1751,1.1751,0,1.1747,1.1747,1.1746,1.1732,1.1731,1.1731,1.1731,1.1726,1.1726,1.1726,0,0,0,0,0,0,0,0,0,0,0,0,0,1.1743,1.1744,1.1751,1.1751,1.1751,1.1747,1.1746,1.1746,1.1732,1.1731,1.1731,1.173,1.1726,1.1726,1.1726,0,0,0,0,0,0,0,0,0,0,0,0,0,1.1744,1.1744,1.1751,1.1743,1.1742,1.1747,1.1746,1.1746,1.1732,1.1731,1.1731,1.173,1.1726,1.1726,1.1726,1.1738,0,0,1.1727,1.1727,0,0,0,0,0,0,0,0,1.1744,1.1744,1.1744,1.1743,1.1742,1.1739,1.1742,1.1744,1.1732,1.1736,1.1731,1.173,1.1731,1.1731,1.1731,1.1738,1.1738,1.1727,1.1727,1.1728,1.1728,0,0,0,0,0,0,0,1.1744,1.1744,1.1749,1.1744,1.1743,1.1739,1.1738,1.1742,1.1736,1.1735,1.1734,1.1734,1.173,1.1731,1.1731,1.1738,1.1727,1.1728,1.1728,1.1728,1.1751,1.1752,0,0,0,0,0,0,1.1745,1.1744,1.1749,1.1749,1.1742,1.1739,1.1739,1.1741,1.1736,1.1735,1.1734,1.1733,1.173,1.173,1.173,1.1742,1.1728,1.1728,1.1728,1.1751,1.1752,1.1752,0,0,0,0,0,0,1.1745,1.1746,1.1749,1.1746,1.1746,1.174,1.1742,1.1741,1.1741,1.1735,1.1734,1.1736,1.173,1.173,1.1736,1.1742,1.1728,1.1728,1.175,1.1751,1.1752,1.1767,0,0,0,0,0,0,1.1745,1.1746,1.1751,1.1746,1.1747,1.1756,1.1743,1.1741,1.1742,1.174,1.1737,1.1735,1.173,1.1735,1.1736,1.1742,1.1728,1.175,1.1751,1.1752,1.1766,1.1768,1.177,0,0,0,0,0,1.1745,1.1756,1.1751,1.1752,1.1753,1.1756,1.1756,1.1749,1.1742,1.1747,1.1743,1.1736,1.1741,1.1736,1.1737,1.1743,1.1749,1.1751,1.1752,1.1765,1.1768,1.177,0,0,0,0,0,0,1.1762,1.1755,1.175,1.1761,1.1759,1.1754,1.1759,1.1753,1.1753,1.1752,1.1743,1.1742,1.1748,1.1746,1.1741,1.1753,1.1744,1.1745,1.1754,1.1756,1.1758,1.1759,1.1729,0,0,0,0,0,1.1767,1.177,1.1764,1.1774,1.1773,1.1766,1.1767,1.1762,1.176,1.1759,1.1755,1.1753,1.1754,1.1755,1.1756,1.1765,1.1763,1.177,1.1772,1.1773,1.1774,1.1777,1.1779,1.1755,1.1755,1.1755,0,0,1.1777,1.1774,1.1777,1.1777,1.1775,1.1778,1.1766,1.177,1.1771,1.176,1.1764,1.1761,1.1758,1.1765,1.1768,1.1764,1.178,1.1775,1.1776,1.1776,1.1778,1.178,1.1782,1.1756,1.1756,1.1756,0,0,1.1797,1.1796,1.1803,1.18,1.1797,1.1792,1.1794,1.1789,1.1786,1.1791,1.1781,1.1783,1.1785,1.1783,1.1782,1.1798,1.1791,1.1798,1.1809,1.1811,1.1813,1.1815,1.1819,1.1821,1.1799,1.1799,1.1799,0,1.1811,1.1815,1.1807,1.1811,1.181,1.1799,1.1805,1.1803,1.18,1.18,1.1795,1.1796,1.1793,1.1798,1.1802,1.1802,1.1802,1.1799,1.1814,1.1815,1.1816,1.182,1.1822,1.18,1.18,1.18,1.18,0,1.183,1.1833,1.1839,1.1835,1.1835,1.184,1.1832,1.1833,1.1827,1.1822,1.1825,1.1821,1.182,1.1821,1.1816,1.1825,1.1822,1.1815,1.1806,1.182,1.1823,1.1824,1.1802,1.1801,1.1801,1.1801,0,0,1.1862,1.1853,1.1855,1.1852,1.1847,1.1848,1.1852,1.185,1.185,1.1848,1.185,1.1851,1.1844,1.1843,1.1837,1.1839,1.185,1.1832,1.1832,1.1835,1.1857,1.1861,1.1863,1.1845,1.1845,1.1846,1.1857,0,1.188,1.1885,1.1877,1.1884,1.1885,1.1874,1.1876,1.1872,1.1867,1.1867,1.1861,1.1862,1.1854,1.1852,1.1854,1.1848,1.1854,1.1847,1.1845,1.1845,1.1846,1.1865,1.187,1.1882,1.1858,1.1859,1.1859,0,1.1902,1.19,1.1907,1.1898,1.1898,1.1901,1.1897,1.1898,1.1893,1.1888,1.1886,1.1878,1.188,1.1871,1.1872,1.1868,1.1866,1.1863,1.1863,1.1862,1.1853,1.1864,1.1885,1.1886,1.1861,1.1861,1.1861,0,1.1922,1.1921,1.1925,1.1923,1.1914,1.1915,1.1912,1.1906,1.1905,1.1901,1.19,1.1897,1.1896,1.1893,1.1884,1.1879,1.1885,1.1877,1.1881,1.1881,1.1883,1.1883,1.1903,1.1883,1.1883,1.1883,1.1883,0,1.1942,1.1947,1.1933,1.1935,1.1939,1.1929,1.1933,1.1928,1.1922,1.1922,1.1912,1.1912,1.1901,1.1899,1.1892,1.1893,1.1893,1.1889,1.1887,1.1889,1.1889,1.1888,1.1886,1.1884,1.1884,1.1884,1.1884,0,1.1966,1.1958,1.196,1.1951,1.1948,1.1951,1.1943,1.1943,1.1937,1.1937,1.1936,1.1926,1.1924,1.1914,1.191,1.1905,1.1908,1.1904,1.1909,1.1908,1.1912,1.1912,1.1932,1.1933,1.1914,1.1914,1.1914,0,1.1979,1.1982,1.1972,1.1971,1.1968,1.1967,1.1965,1.1954,1.1952,1.1945,1.1946,1.1943,1.194,1.1936,1.1928,1.1923,1.1919,1.1927,1.1919,1.1921,1.1918,1.1918,1.1917,1.1928,1.1929,1.1929,1.1929,0,1.2003,1.1997,1.1995,1.1991,1.1989,1.1985,1.198,1.198,1.1968,1.1966,1.1963,1.196,1.1955,1.1951,1.1945,1.194,1.1932,1.1931,1.1932,1.1934,1.1936,1.1934,1.1913,1.1931,1.1931,1.1931,1.1931,1.193,1.202,1.2021,1.2014,1.2011,1.2006,1.2002,1.2001,1.1994,1.1991,1.1986,1.198,1.1977,1.1969,1.1961,1.1956,1.1953,1.1949,1.195,1.1951,1.1951,1.1951,1.1937,1.1952,1.1952,1.1952,1.1952,1.1952,0,1.2042,1.2036,1.2034,1.2027,1.2024,1.2016,1.201,1.2008,1.2006,1.2,1.1996,1.1991,1.1987,1.1978,1.1972,1.1971,1.1967,1.197,1.197,1.1968,1.1956,1.1956,1.1973,1.1973,1.1973,1.1973,1.1973,1.1973,1.2053,1.2053,1.2047,1.2044,1.2039,1.2035,1.2032,1.2028,1.2022,1.2017,1.2013,1.2007,1.1999,1.1993,1.1988,1.1985,1.1983,1.1987,1.1983,1.1972,1.197,1.1968,1.1967,1.1987,1.1987,1.1996,1.1996,1.1996]},{"header":{"parameterUnit":"m.s-1","parameterCategory":1,"la1":30.2991,"la2":30.254,"lo1":-89.0895,"lo2":-89.0444,"dy":0.0017,"dx":0.0017,"nx":28,"ny":28,"refTime":"2024-05-16T09:00:00:Z","depth":0,"parameterNumber":3,"parameterNumberName":"V-component_of_WINDS"},"data":[0,0,0,0,0,0,0,0,0,0,0,0,0,0,0,0,0,0,0,0,0,0,0,0,0,0,0,0,0,0,0,0,0,0,0,0,0,0,0,0,0,0,0,0,0,0,0,0,0,0,0,0,0,0,0,0,0,0,5.3243,5.3244,0,5.3367,5.3369,5.337,5.3349,5.3347,5.3345,5.3343,5.3465,5.347,5.3476,0,0,0,0,0,0,0,0,0,0,0,0,0,5.2979,5.2984,5.3242,5.3244,5.3246,5.3367,5.3369,5.3371,5.3349,5.3347,5.3344,5.3342,5.3464,5.347,5.3476,0,0,0,0,0,0,0,0,0,0,0,0,0,5.3098,5.2986,5.3242,5.325,5.3252,5.3367,5.3369,5.3371,5.335,5.3347,5.3343,5.334,5.3461,5.3469,5.3477,5.3591,0,0,5.3501,5.3505,0,0,0,0,0,0,0,0,5.3091,5.3107,5.3247,5.325,5.3252,5.3339,5.3321,5.3444,5.3351,5.3313,5.3343,5.3339,5.3426,5.3436,5.3467,5.3596,5.3602,5.3502,5.3507,5.351,5.3512,0,0,0,0,0,0,0,5.3083,5.3102,5.3292,5.3249,5.3252,5.3245,5.3258,5.3344,5.3385,5.3316,5.3314,5.333,5.3426,5.3459,5.3469,5.3603,5.3502,5.3509,5.3514,5.3517,5.3829,5.3833,0,0,0,0,0,0,5.3073,5.3095,5.3288,5.3295,5.3162,5.3252,5.3267,5.3314,5.3385,5.3392,5.3332,5.3328,5.3447,5.346,5.3474,5.361,5.351,5.3517,5.3522,5.3826,5.383,5.3834,0,0,0,0,0,0,5.3067,5.309,5.3283,5.3195,5.3219,5.326,5.3314,5.3319,5.3352,5.3397,5.3404,5.3359,5.3445,5.3462,5.3561,5.3614,5.3521,5.3528,5.3822,5.3827,5.3832,5.3884,0,0,0,0,0,0,5.306,5.3089,5.3134,5.3196,5.3224,5.3371,5.3317,5.3323,5.3366,5.3362,5.3424,5.3431,5.3444,5.355,5.3569,5.3623,5.3534,5.3817,5.3824,5.383,5.3877,5.389,5.3901,0,0,0,0,0,5.3051,5.3143,5.3137,5.316,5.3282,5.3374,5.3389,5.3404,5.337,5.3415,5.3444,5.3429,5.3605,5.356,5.3582,5.3639,5.3814,5.3822,5.383,5.3872,5.3888,5.3901,0,0,0,0,0,0,5.3085,5.3151,5.3145,5.3261,5.3312,5.337,5.3427,5.342,5.3481,5.3474,5.3488,5.3502,5.3602,5.363,5.3579,5.3751,5.3704,5.3717,5.3729,5.3744,5.3755,5.3746,5.3541,0,0,0,0,0,5.3106,5.3177,5.3231,5.3327,5.3353,5.3386,5.3427,5.3433,5.3486,5.3507,5.3544,5.3594,5.366,5.3704,5.3767,5.3881,5.3893,5.3931,5.3942,5.3952,5.3962,5.4022,5.4039,5.386,5.386,5.386,0,0,5.315,5.3195,5.3239,5.3335,5.3376,5.3447,5.3404,5.3482,5.3534,5.3519,5.3614,5.3643,5.3699,5.3806,5.3854,5.3832,5.4014,5.3962,5.3969,5.3975,5.4032,5.4049,5.4064,5.3866,5.3865,5.3864,0,0,5.3266,5.3309,5.3393,5.3434,5.3496,5.3517,5.3537,5.3597,5.3615,5.3712,5.3701,5.3762,5.3876,5.3917,5.3952,5.4082,5.4069,5.4102,5.4163,5.4221,5.4235,5.4247,5.4292,5.4308,5.4112,5.4112,5.4112,0,5.3313,5.3422,5.3437,5.3515,5.3557,5.3547,5.3631,5.3669,5.3749,5.3776,5.3751,5.3893,5.3931,5.4045,5.4077,5.4106,5.4128,5.4095,5.4232,5.4245,5.4256,5.4299,5.4316,5.4116,5.4115,5.4115,5.4115,0,5.3474,5.355,5.361,5.3688,5.3736,5.3817,5.3841,5.3888,5.389,5.3912,5.4009,5.4054,5.4125,5.4153,5.4155,5.4267,5.4251,5.4229,5.4182,5.4277,5.4317,5.4333,5.4121,5.4119,5.4118,5.4118,0,0,5.3617,5.3701,5.3723,5.3757,5.3824,5.3881,5.396,5.4031,5.407,5.4124,5.4189,5.4285,5.4264,5.4304,5.4311,5.4362,5.4459,5.4333,5.4334,5.4354,5.4583,5.4599,5.4617,5.4452,5.4455,5.4457,5.4577,0,5.3738,5.388,5.3895,5.402,5.4088,5.4079,5.4147,5.4194,5.4217,5.4276,5.43,5.4367,5.4336,5.436,5.441,5.4437,5.4505,5.4428,5.451,5.4513,5.4495,5.4639,5.4656,5.4768,5.4593,5.4596,5.4598,0,5.39,5.396,5.4092,5.4148,5.4177,5.4238,5.4303,5.4361,5.4413,5.4425,5.447,5.4469,5.4547,5.4498,5.4605,5.4552,5.4586,5.4604,5.4609,5.4616,5.4561,5.4649,5.4804,5.482,5.4623,5.4621,5.4619,0,5.3988,5.4102,5.4195,5.4225,5.4292,5.4335,5.4365,5.4414,5.4455,5.4511,5.4538,5.4602,5.4637,5.4685,5.4701,5.4664,5.4806,5.4759,5.4817,5.4817,5.4847,5.4845,5.5009,5.4871,5.487,5.487,5.487,0,5.4122,5.4203,5.4236,5.4293,5.4382,5.4397,5.4485,5.4512,5.4555,5.4616,5.4611,5.4667,5.4685,5.4744,5.4756,5.4841,5.4857,5.4868,5.487,5.4868,5.4867,5.489,5.4882,5.4874,5.4873,5.4873,5.4872,0,5.4236,5.4262,5.4363,5.4418,5.4434,5.4497,5.4543,5.4597,5.4618,5.4695,5.4713,5.4746,5.4815,5.4835,5.4917,5.4925,5.5025,5.5021,5.5008,5.5008,5.5065,5.5059,5.5248,5.5273,5.512,5.5121,5.5123,0,5.432,5.4382,5.4444,5.4485,5.4517,5.4583,5.4625,5.464,5.4684,5.4747,5.4792,5.4861,5.4916,5.5026,5.5056,5.5118,5.5114,5.5176,5.5123,5.5119,5.5113,5.5109,5.5114,5.5186,5.5188,5.5189,5.519,0,5.4465,5.4474,5.4535,5.4601,5.4652,5.4704,5.4754,5.4787,5.4809,5.4858,5.4929,5.4972,5.5056,5.5123,5.5186,5.5214,5.5205,5.5207,5.5223,5.5221,5.5211,5.5216,5.5034,5.5202,5.5201,5.52,5.5199,5.5199,5.4565,5.4619,5.4671,5.4739,5.4778,5.4825,5.4878,5.4905,5.4965,5.5036,5.5041,5.5117,5.5165,5.5249,5.528,5.5338,5.5319,5.5344,5.535,5.5355,5.5359,5.5202,5.5349,5.5349,5.5349,5.5349,5.5348,0,5.4709,5.4741,5.4804,5.4874,5.4927,5.4915,5.4969,5.5014,5.5081,5.5127,5.5182,5.5262,5.5326,5.5361,5.5424,5.5464,5.5461,5.548,5.5477,5.5483,5.5373,5.5352,5.5481,5.5481,5.5481,5.5481,5.5481,5.5481,5.4789,5.488,5.4894,5.5003,5.5034,5.511,5.5141,5.5183,5.522,5.531,5.5364,5.5386,5.5427,5.5493,5.5551,5.5559,5.5582,5.5602,5.5608,5.5505,5.5491,5.5478,5.5458,5.5608,5.5608,5.5713,5.5714,5.5715]}]]